Location: Zagreb
(45.8000°N, 16.0000°E)
Time: 20:56:57
(UTC+01:00)

Oscar 11 - Pass Details

Date: 08 November 2020
Orbit: 613 x 625 km, 97.6° (Epoch: 01 December)

Event Time Altitude Azimuth Distance (km) Brightness Sun altitude
Rises 18:36:56 0° 211° (SSW) 2,878 10.9 -21.9°
Reaches altitude 10° 18:39:59 10° 235° (SW) 1,976 10.4 -22.4°
Maximum altitude 18:42:26 15° 270° (W) 1,680 10.3 -22.8°
Drops below altitude 10° 18:44:54 10° 305° (NW) 1,982 10.4 -23.3°
Sets 18:48:00 0° 330° (NNW) 2,892 10.9 -23.8°
